Capitol Logistics 437


KCVG
Cincinnati/Northern Kentucky International Airport
Covington, Kentucky, US
KPHL
Philadelphia International Airport
Philadelphia, Pennsylvania, US

Activity Log

Date Flight Route Aircraft Duration
09/23/2019 CPX437 ROCKT9 AHTIY JST BOJID2 B738 1h 13m

Route Details

Aircraft Information
Primary: Boeing 737-800BCF
Backup: Not Available
Route Data
Distance: 462nm
Sched. Duration: 1h 44m
Avg. Duration: 1h 13m (-31m)
Times Flown: 1
Recm'd Route: ROCKT9 AHTIY JST BOJID2
Planned Altitude: 35,000ft
Origin Wx: KCVG 221952Z 20010KT 10SM SCT041 27/16 A3009 RMK AO2 SLP182 T02670161
Dest. Wx: KPHL 221954Z 00000KT 7SM FEW026 24/18 A3020 RMK AO2 SLP226 T02440183
Notes:

Financial History
Total Freight: 36,960lbs
Average Load: 36,960lbs/flt
Fuel Used: 6,821lbs
Avg. Fuel Used: 6,821lbs/flt
Fuel Expense: $6,344
Avg. Fuel Expense: $6,344
Avg. Fuel Cost: $0.93/lbs
Total Gross Income: $46,939
Pilot Pay: $229
Total Expenses: $5,121
Total Revenue: $35,179
Average Revenue: $46,939.20